Tracking 23764 objects as of 17-Oct-2021
HD Live streaming from Space Station
objects crossing your sky now

GEOTAIL

Track GEOTAIL now!
GEOTAIL is classified as:


NORAD ID: 22049
Int'l Code: 1992-044A
Perigee: 55,803.9 km
Apogee: 185,274.2 km
Inclination: 41.9 °
Period: 7,499.0 minutes
Semi major axis: 126909 km
RCS: 3.5 m2 (large)
Launch date: July 24, 1992
Source: Japan (JPN)
Launch site: AIR FORCE EASTERN TEST RANGE (AFETR)

Study the dynamics of the Earth's magnetotail over a wide range of distance
aabbcc
Your satellite tracking list
Your tracking list is empty




NASA's NSSDC Master Catalog

Two Line Element Set (TLE):
1 22049U 92044A   21291.10396276 -.00001753  00000-0  00000-0 0  9992
2 22049  41.8551  40.4940 5100871 187.9031 359.0848  0.19202556 12498
Source of the keplerian elements: AFSPC